Sunlight Mountain, CO

9:09 PM MST on February 21, 2018 (GMT -0700)
Sunlight Mountain

Weather History for K5SM - July, 2013

Change the Weather History Date:

Monday, July 29, 2013

  Actual Average (KRIL) Record (KRIL)
Temperature  
Mean Temperature 52 °F -  
Max Temperature 59 °F 89 °F 101 °F (1934)
Min Temperature 46 °F 52 °F 44 °F (1958)
Degree Days  
Heating Degree Days 12    
Growing Degree Days 2 (Base 50)    
Moisture  
Dew Point 41 °F    
Average Humidity 78    
Maximum Humidity 100    
Minimum Humidity 4    
Precipitation  
Precipitation 0.00 in - - ()
Sea Level Pressure  
Sea Level Pressure 30.50 in    
Wind  
Wind Speed 0 mph (SW)    
Max Wind Speed 5 mph    
Max Gust Speed -    
Visibility 9 miles    
Events Rain , Thunderstorm    
Averages and records for this station are not official NWS values.
T = Trace of Precipitation, MM = Missing Value Source: NWS Daily Summary

Daily Weather History Graph

Daily Weather History Graph

Search for Another Location

Airport or City:

Trip Planner

Search our weather history database for the weather conditions in past years. The results will help you decide how hot, cold, wet, or windy it might be!

Date:

Astronomy

Jul. 29, 2013 Rise Set
Actual Time 6:06 AM MDT 8:24 PM MDT
Civil Twilight 5:36 AM MDT 8:54 PM MDT
Nautical Twilight 4:59 AM MDT 9:31 PM MDT
Astronomical Twilight 4:18 AM MDT 10:12 PM MDT
Moon No Moon Rise 1:49 PM MDT (7/29)
Length of Visible Light 15h 18m
Length of Day
14h 17m
Waning Gibbous, 50% of the Moon is Illuminated
Jul 29
Waning Gibbous
Aug 6
New
Aug 14
First Quarter
Aug 20
Full
Aug 28
Last Quarter

Hourly Weather History & Observations

Time (MDT) Temp. Windchill Dew Point Humidity Pressure Visibility Wind Dir Wind Speed Gust Speed Precip Events Conditions
12:18 AM 50.0 °F - - N/A% 30.42 in 10.0 mi Calm Calm - N/A   Mostly Cloudy
12:38 AM 50.0 °F - -40.0 °F 4% 30.42 in 10.0 mi Calm Calm - N/A   Overcast
12:57 AM 50.0 °F - -45.4 °F 4% 30.43 in 10.0 mi Calm Calm - N/A   Mostly Cloudy
1:18 AM 50.0 °F - - N/A% 30.42 in 10.0 mi Calm Calm - N/A   Scattered Clouds
1:38 AM 50.0 °F - - N/A% 30.42 in 10.0 mi Calm Calm - N/A   Clear
1:58 AM 50.0 °F - - N/A% 30.42 in 10.0 mi Calm Calm - N/A   Mostly Cloudy
2:18 AM 50.0 °F - -41.8 °F 4% 30.42 in 10.0 mi Calm Calm - N/A Thunderstorm Overcast
2:38 AM 48.2 °F - -36.4 °F 4% 30.42 in 10.0 mi Calm Calm - N/A Thunderstorm Thunderstorm
2:58 AM 48.2 °F - 35.6 °F 62% 30.42 in 10.0 mi Calm Calm - N/A   Overcast
3:17 AM 46.4 °F - 35.6 °F 66% 30.42 in 10.0 mi Calm Calm - N/A   Overcast
3:37 AM 46.4 °F - 37.4 °F 71% 30.42 in 7.0 mi Calm Calm - N/A   Overcast
3:58 AM 46.4 °F - 41.0 °F 81% 30.42 in 1.5 mi Calm Calm - N/A   Light Drizzle
4:18 AM 46.4 °F - 41.0 °F 81% 30.42 in 2.5 mi Calm Calm - N/A   Haze
4:38 AM 48.2 °F - 41.0 °F 76% 30.43 in 3.0 mi Calm Calm - N/A Rain Rain
4:58 AM 46.4 °F - 41.0 °F 81% 30.43 in 0.8 mi Calm Calm - N/A Rain Light Rain
5:17 AM 46.4 °F - 41.0 °F 81% 30.43 in 1.0 mi Calm Calm - N/A Rain Rain
5:37 AM 46.4 °F - 41.0 °F 81% 30.43 in 7.0 mi Calm Calm - N/A   Light Drizzle
5:58 AM 46.4 °F 44.3 °F 37.4 °F 71% 30.43 in 10.0 mi SSE 4.6 mph - N/A Rain Light Rain
6:18 AM 46.4 °F - 37.4 °F 71% 30.44 in 10.0 mi Calm Calm - N/A Rain Rain
6:38 AM 46.4 °F - 44.6 °F 93% 30.44 in 10.0 mi Calm Calm - N/A   Drizzle
6:57 AM 46.4 °F - 44.6 °F 93% 30.45 in 10.0 mi Calm Calm - N/A   Overcast
7:18 AM 46.4 °F - 42.8 °F 87% 30.45 in 10.0 mi Calm Calm - N/A   Light Drizzle
7:38 AM 46.4 °F - 42.8 °F 87% 30.45 in 10.0 mi Calm Calm - N/A   Overcast
7:58 AM 46.4 °F - 42.8 °F 87% 30.46 in 10.0 mi Calm Calm - N/A   Overcast
8:18 AM 48.2 °F - 42.8 °F 82% 30.46 in 10.0 mi Calm Calm - N/A   Overcast
8:38 AM 48.2 °F - 42.8 °F 82% 30.46 in 10.0 mi Calm Calm - N/A   Overcast
8:57 AM 50.0 °F - 44.6 °F 82% 30.47 in 10.0 mi Calm Calm - N/A   Overcast
9:18 AM 50.0 °F - 46.4 °F 87% 30.48 in 10.0 mi Calm Calm - N/A   Overcast
9:38 AM 51.8 °F - 46.4 °F 82% 30.48 in 10.0 mi Calm Calm - N/A   Overcast
9:58 AM 51.8 °F - 46.4 °F 82% 30.49 in 10.0 mi SSW 3.5 mph - N/A   Overcast
10:18 AM 51.8 °F - 46.4 °F 82% 30.50 in 10.0 mi Calm Calm - N/A   Overcast
10:38 AM 53.6 °F - 48.2 °F 82% 30.50 in 10.0 mi Calm Calm - N/A   Overcast
10:58 AM 53.6 °F - 48.2 °F 82% 30.51 in 10.0 mi Calm Calm - N/A   Overcast
11:18 AM 53.6 °F - 48.2 °F 82% 30.51 in 10.0 mi Calm Calm - N/A   Overcast
11:38 AM 55.4 °F - 50.0 °F 82% 30.51 in 10.0 mi Calm Calm - N/A   Overcast
11:58 AM 55.4 °F - 50.0 °F 82% 30.52 in 10.0 mi NW 4.6 mph - N/A   Overcast
12:18 PM 51.8 °F - 50.0 °F 94% 30.52 in 10.0 mi Calm Calm - N/A   Overcast
12:38 PM 53.6 °F - 48.2 °F 82% 30.52 in 10.0 mi SW 3.5 mph - N/A Thunderstorm Thunderstorm
12:58 PM 55.4 °F - 50.0 °F 82% 30.52 in 10.0 mi Calm Calm - N/A   Overcast
1:18 PM 53.6 °F - 50.0 °F 88% 30.53 in 10.0 mi Calm Calm - N/A   Overcast
1:38 PM 55.4 °F - 50.0 °F 82% 30.52 in 10.0 mi Calm Calm - N/A Thunderstorm Overcast
1:58 PM 55.4 °F - 50.0 °F 82% 30.53 in 10.0 mi WSW 3.5 mph - N/A   Overcast
2:18 PM 55.4 °F - 48.2 °F 77% 30.53 in 10.0 mi Calm Calm - N/A Thunderstorm Thunderstorm
2:38 PM 50.0 °F - 46.4 °F 87% 30.53 in 2.5 mi Calm Calm - N/A Rain , Thunderstorm Light Thunderstorms and Rain
2:59 PM 50.0 °F - 48.2 °F 94% 30.53 in 2.5 mi Calm Calm - N/A Rain , Thunderstorm Light Thunderstorms and Rain
3:19 PM 55.4 °F - 55.4 °F 100% 30.53 in 10.0 mi Calm Calm - N/A Thunderstorm Scattered Clouds
3:39 PM 59.0 °F - 53.6 °F 82% 30.54 in 10.0 mi Calm Calm - N/A   Scattered Clouds
3:59 PM 57.2 °F - 51.8 °F 82% 30.54 in 10.0 mi Calm Calm - N/A   Mostly Cloudy
4:19 PM 55.4 °F - 51.8 °F 88% 30.53 in 10.0 mi Calm Calm - N/A Thunderstorm Overcast
4:39 PM 55.4 °F - 51.8 °F 88% 30.53 in 10.0 mi Calm Calm - N/A   Mostly Cloudy
4:59 PM 57.2 °F - 51.8 °F 82% 30.53 in 10.0 mi Calm Calm - N/A   Overcast
5:19 PM 55.4 °F - 51.8 °F 88% 30.53 in 10.0 mi Calm Calm - N/A   Overcast
5:39 PM 55.4 °F - 51.8 °F 88% 30.53 in 10.0 mi Calm Calm - N/A Thunderstorm Overcast
5:58 PM 55.4 °F - 51.8 °F 88% 30.53 in 10.0 mi Calm Calm - N/A   Overcast
6:18 PM 55.4 °F - 51.8 °F 88% 30.53 in 10.0 mi Calm Calm - N/A   Scattered Clouds
6:39 PM 55.4 °F - 50.0 °F 82% 30.52 in 10.0 mi Calm Calm - N/A   Scattered Clouds
6:57 PM 53.6 °F - 48.2 °F 82% 30.51 in 10.0 mi Calm Calm - N/A   Scattered Clouds
7:19 PM 53.6 °F - 48.2 °F 82% 30.52 in 10.0 mi Calm Calm - N/A   Scattered Clouds
7:39 PM 53.6 °F - 48.2 °F 82% 30.52 in 10.0 mi Calm Calm - N/A Thunderstorm Clear
7:59 PM 51.8 °F - 48.2 °F 88% 30.53 in 10.0 mi Calm Calm - N/A   Clear
8:19 PM 51.8 °F - 46.4 °F 82% 30.55 in 10.0 mi Calm Calm - N/A   Clear
8:39 PM 50.0 °F - 46.4 °F 87% 30.55 in 10.0 mi Calm Calm - N/A Thunderstorm Clear
8:59 PM 50.0 °F - 46.4 °F 87% 30.57 in 10.0 mi Calm Calm - N/A   Clear
9:19 PM 50.0 °F - 46.4 °F 87% 30.57 in 10.0 mi Calm Calm - N/A   Scattered Clouds
9:39 PM 50.0 °F - 46.4 °F 87% 30.58 in 10.0 mi SW 3.5 mph - N/A   Scattered Clouds
9:59 PM 50.0 °F - 46.4 °F 87% 30.58 in 10.0 mi Calm Calm - N/A   Mostly Cloudy
10:19 PM 50.0 °F - 44.6 °F 82% 30.59 in 10.0 mi SSW 4.6 mph - N/A   Scattered Clouds
10:39 PM 50.0 °F - 42.8 °F 76% 30.59 in 10.0 mi Calm Calm - N/A   Clear
10:59 PM 50.0 °F - 41.0 °F 71% 30.59 in 10.0 mi Calm Calm - N/A   Clear
11:19 PM 46.4 °F - 41.0 °F 81% 30.60 in 10.0 mi Calm Calm - N/A   Clear
11:39 PM 46.4 °F - 41.0 °F 81% 30.60 in 10.0 mi Calm Calm - N/A Thunderstorm Mostly Cloudy
11:59 PM 46.4 °F - 41.0 °F 81% 30.59 in 10.0 mi Calm Calm - N/A Thunderstorm Scattered Clouds